Theta_e
314 314 314 314 313 313 313 313 313 313 313 313 313 312 313 314 315 316 315 315 317 319 322 325 326 326 323 321 322 324 330 328 327 328 325 320 320 317 314 314 314 310 310 311 311
315 315 315 314 314 314 314 314 314 313 313 313 313 313 313 314 315 317 313 315 317 322 325 326 322 322 319 320 317 321 327 326 322 322 323 322 320 316 316 314 312 309 309 310 310
316 316 315 315 315 315 314 314 314 314 313 313 314 313 313 314 319 317 314 315 318 322 323 323 323 322 322 318 317 320 323 322 321 320 318 320 319 316 315 315 312 309 308 308 308
317 316 316 316 315 315 315 314 314 314 314 314 314 313 314 316 319 316 314 314 319 321 321 321 320 322 321 318 317 319 317 318 318 317 317 317 317 317 315 315 313 308 309 308 306
318 317 316 316 316 315 315 315 314 314 314 314 314 312 316 319 316 315 315 316 319 320 320 319 318 317 318 316 316 317 317 316 316 316 316 315 315 315 315 313 310 309 309 307 306
319 318 317 317 316 316 315 315 314 314 314 314 314 312 317 320 315 316 315 317 318 319 320 319 317 317 317 315 316 316 316 315 315 315 316 315 315 314 314 310 309 308 307 306 306
320 320 319 318 317 317 316 315 314 314 314 314 314 312 318 316 315 316 317 316 318 318 319 319 318 316 315 316 315 316 316 315 314 314 315 313 313 313 312 309 309 307 305 305 307
322 321 320 319 318 317 316 314 314 314 314 314 313 313 315 315 314 315 316 317 317 318 318 317 316 316 316 315 316 316 316 317 316 314 314 312 310 316 310 309 308 307 305 305 306
323 321 321 320 318 317 315 315 314 314 315 313 312 314 315 314 314 315 316 316 317 317 316 315 316 317 316 317 316 316 315 315 318 314 314 313 312 314 309 310 309 305 305 305 305
323 322 321 320 318 318 315 314 316 314 313 314 316 313 313 314 314 315 315 316 316 316 316 316 314 315 313 312 314 314 312 312 313 315 314 313 311 310 310 309 309 307 304 304 305
322 321 320 319 318 317 316 316 314 313 317 314 314 314 313 313 313 313 314 315 315 315 315 318 314 314 315 315 315 315 314 312 314 313 312 310 310 310 310 309 307 306 305 304 305
320 319 319 318 317 317 317 319 317 317 316 315 314 314 314 313 313 313 313 313 315 315 315 314 316 314 315 315 315 315 315 313 312 313 312 310 310 310 311 310 308 307 306 305 305
319 318 316 317 316 317 317 317 319 319 316 316 314 314 313 313 313 312 313 314 315 315 316 315 315 315 315 314 314 313 313 312 312 312 312 312 313 314 313 312 311 310 308 307 305
318 318 316 315 315 318 319 317 319 317 313 316 314 314 313 313 314 313 314 315 315 315 316 315 314 314 315 315 312 313 313 313 314 312 312 312 311 313 314 314 312 311 308 308 307
318 317 309 311 317 320 319 319 317 316 320 316 314 313 312 313 313 313 313 314 315 315 313 316 314 314 316 314 311 312 311 312 313 314 314 317 314 314 313 314 313 310 308 307 307
317 314 305 309 312 320 319 318 318 316 320 317 314 313 312 313 314 313 313 313 313 315 315 314 311 311 311 311 311 311 312 312 313 314 321 317 311 310 314 314 313 312 310 308 308
314 304 309 317 319 319 319 316 314 319 317 316 315 314 313 313 314 314 313 313 312 312 314 314 313 309 310 312 312 312 313 321 324 321 321 315 312 312 315 314 312 312 309 310 308
303 308 312 314 320 320 318 314 320 318 316 315 315 314 314 314 314 314 313 313 312 314 313 315 318 311 309 310 312 311 313 316 320 317 315 314 314 318 314 312 312 312 312 310 310
304 308 310 313 320 320 312 316 316 317 317 317 315 315 314 316 314 314 312 313 313 312 313 314 315 308 307 307 309 314 313 312 315 316 318 318 317 316 313 313 314 314 312 311 310
306 311 315 315 321 319 314 317 316 317 316 316 315 315 315 315 315 314 312 313 316 313 313 316 314 310 308 307 309 311 311 317 316 321 319 318 317 316 316 313 314 314 312 310 310
305 314 317 319 320 314 317 315 316 316 316 316 316 315 315 315 313 313 314 316 315 313 312 315 314 312 309 309 311 309 311 311 312 314 318 317 318 312 313 312 313 313 312 310 309
307 318 319 320 318 314 316 315 316 315 315 317 316 317 315 313 313 313 314 317 313 311 313 314 311 312 312 308 308 308 312 311 316 319 312 313 314 313 310 311 312 312 311 309 309
313 315 320 319 318 315 315 317 316 316 315 316 316 316 317 314 315 314 315 313 313 313 312 311 312 314 316 313 309 309 309 311 313 313 317 316 316 312 309 312 314 315 311 311 311
311 317 314 314 313 314 315 315 316 315 316 315 316 316 317 317 317 316 315 313 312 314 311 312 314 315 319 320 312 311 311 309 311 310 311 314 314 316 311 312 313 312 311 310 310
307 316 315 321 320 317 313 315 316 317 315 314 316 316 315 316 317 318 315 312 312 313 311 311 313 316 315 315 313 313 313 310 309 311 314 315 314 314 313 313 311 311 312 311 311
311 315 314 314 317 318 316 316 316 316 315 316 316 316 315 316 316 316 314 312 312 311 310 310 314 316 316 315 314 314 313 313 310 310 310 311 312 313 313 309 310 311 311 311 310
303 309 314 315 315 316 317 317 317 317 315 315 315 315 315 315 315 315 313 311 312 310 310 311 313 313 314 314 314 316 315 314 313 311 312 312 314 313 313 313 313 312 311 310 310
Wind_Speed
6 6 6 6 5 5 5 5 4 4 5 5 6 7 7 7 6 5 1 2 3 4 7 13 13 11 3 0 0 3 4 3 5 4 3 4 3 3 2 5 2 3 4 7 33
6 6 6 6 6 5 5 5 5 5 5 5 6 7 7 8 6 3 4 3 2 3 9 10 7 9 1 2 3 4 3 1 3 2 3 4 4 7 4 4 3 5 8 27 33
6 6 6 6 6 7 6 6 6 5 5 5 6 7 7 6 3 2 5 3 2 1 7 14 15 4 2 3 2 2 3 3 3 3 4 4 3 7 6 5 7 10 12 21 29
6 5 6 7 7 7 7 6 7 6 5 5 6 7 6 1 0 3 3 2 1 2 9 14 6 2 2 3 2 4 3 3 2 2 3 0 2 3 6 5 4 14 27 22 18
6 6 6 7 7 8 8 8 7 6 5 5 6 8 1 1 2 4 3 3 3 5 8 6 5 3 3 2 4 3 3 4 5 3 2 1 3 4 5 7 9 23 20 17 19
6 6 7 7 8 8 9 9 7 5 5 5 5 6 1 2 3 3 2 3 3 6 5 8 3 3 1 1 3 0 2 5 5 5 3 2 3 1 6 8 9 16 13 13 20
7 7 7 8 9 9 10 9 7 5 4 4 4 4 2 6 2 0 4 3 5 5 4 5 5 4 3 1 0 1 1 1 4 4 2 3 5 9 7 10 11 10 10 10 20
10 8 8 8 10 11 11 9 7 4 3 3 3 0 3 5 3 1 1 2 3 3 2 1 4 1 4 2 2 2 2 1 2 6 3 3 7 5 7 9 10 10 9 10 14
12 10 10 10 10 12 11 9 4 3 3 3 2 2 4 4 2 2 2 2 1 1 2 2 2 1 4 2 4 3 3 0 3 7 2 3 6 4 7 9 9 10 10 10 9
13 12 11 11 10 11 10 5 3 3 2 3 5 3 2 2 5 4 1 0 2 2 4 1 2 3 4 5 2 3 4 5 4 3 2 4 9 8 8 8 12 10 10 10 10
13 13 13 12 10 10 7 2 3 3 3 5 2 3 5 4 4 2 2 2 2 1 1 2 6 2 1 3 2 1 3 4 2 2 4 5 8 11 9 9 9 9 9 9 12
14 13 14 12 10 8 7 1 1 1 3 12 3 2 4 6 2 3 3 1 2 3 2 5 2 1 1 1 1 2 3 4 4 2 4 7 11 9 5 5 9 10 9 10 6
15 13 13 12 11 9 8 9 5 1 1 4 5 5 4 4 2 5 5 2 3 3 2 4 3 1 1 4 4 2 2 1 3 8 4 5 6 3 3 2 4 6 8 6 10
15 14 12 9 6 4 5 6 7 1 3 4 5 4 5 3 1 1 2 2 2 2 1 4 2 1 1 2 1 2 0 2 3 4 1 3 3 4 2 2 3 3 5 9 8
16 14 11 9 7 3 2 8 3 2 2 4 4 4 6 6 6 1 1 2 1 1 5 4 4 0 1 2 1 4 0 1 1 2 2 5 4 6 3 2 3 6 6 8 8
16 14 11 9 10 2 4 5 3 5 6 5 4 5 5 3 4 3 1 0 2 1 1 2 1 2 2 2 3 1 2 2 2 2 3 3 4 5 3 4 3 2 5 8 7
15 13 14 10 6 5 5 3 4 3 1 5 5 6 5 6 5 5 5 3 5 4 3 1 1 1 1 2 1 2 3 3 3 4 4 1 3 8 4 3 5 4 6 6 6
12 12 14 24 9 7 6 4 4 6 6 4 6 7 7 6 6 7 5 3 6 3 3 5 2 1 3 2 2 1 4 4 3 0 4 4 3 4 5 5 2 1 3 4 4
10 10 11 30 13 6 4 3 8 7 7 8 7 5 5 5 5 5 7 5 7 11 7 5 1 1 2 2 1 3 3 2 4 3 3 3 4 3 2 2 2 2 3 6 6
5 7 10 29 16 8 4 6 5 2 6 6 7 7 8 7 4 8 8 6 4 6 4 3 4 1 1 2 1 0 1 2 3 2 1 5 5 4 1 4 2 2 6 8 8
5 3 12 26 19 3 7 7 5 4 5 6 7 7 6 8 9 6 7 2 4 3 6 2 3 2 2 4 6 1 0 0 4 4 4 1 6 6 6 6 4 3 3 7 9
4 2 25 37 4 4 9 7 3 4 3 3 4 3 8 10 8 6 9 2 6 7 7 3 5 3 2 1 1 1 3 4 4 3 2 4 6 5 9 8 5 3 7 8 8
3 2 20 14 9 5 5 6 3 5 5 5 5 5 2 7 5 6 4 2 3 4 7 6 1 3 4 3 3 3 4 3 4 3 5 5 6 3 5 2 2 4 8 7 6
3 4 2 0 2 13 13 8 15 4 5 5 5 4 3 4 1 6 3 1 2 3 3 4 3 5 6 4 5 4 5 5 5 4 4 7 5 6 8 9 7 8 8 7 7
2 6 7 8 13 10 11 13 10 10 6 9 4 7 8 6 5 6 4 2 4 0 1 4 5 4 5 4 5 6 5 9 9 6 7 4 9 9 9 9 7 7 5 6 7
4 3 1 5 13 17 8 13 24 9 11 7 6 10 9 6 8 8 9 5 6 3 6 1 3 1 3 3 7 5 9 10 12 7 13 8 18 12 17 7 6 8 7 7 7
12 6 3 4 11 16 17 9 18 15 7 10 14 8 8 13 4 5 8 10 11 10 8 7 5 3 4 3 5 7 12 18 7 6 14 12 20 4 6 7 7 8 7 8 9
Wind_Direction
40 36 30 27 22 12 4 357 348 344 340 344 350 344 326 314 324 319 14 313 336 315 319 311 305 275 285 123 296 40 52 4 4 69 135 130 101 32 142 124 62 31 135 182 161
34 30 25 19 12 5 357 347 340 335 334 337 343 339 327 323 336 43 338 352 337 330 342 332 340 335 68 4 7 82 83 60 345 61 128 151 102 161 150 137 115 66 69 139 156
23 22 16 11 3 357 348 340 334 327 327 328 332 334 329 334 352 259 349 0 347 329 302 305 292 281 36 67 357 15 145 158 27 44 56 145 158 178 158 209 195 176 155 150 160
6 10 5 359 354 348 342 336 327 323 320 315 324 329 328 360 139 335 356 31 44 297 311 299 326 132 130 112 266 100 67 60 111 49 10 284 308 181 177 223 159 159 162 160 167
349 352 349 345 345 343 336 328 323 319 306 310 323 332 23 17 240 339 9 59 21 325 287 351 14 36 77 107 18 94 163 111 136 162 236 332 273 239 241 230 114 142 160 167 177
329 336 336 334 335 333 330 324 317 302 299 310 322 334 15 347 132 340 68 25 349 339 352 34 344 324 306 67 111 79 181 168 178 202 209 186 271 55 267 141 126 151 168 177 181
309 321 326 325 323 325 327 323 307 293 286 293 316 346 314 242 190 119 55 58 36 339 9 40 348 41 336 60 150 196 307 288 213 194 195 119 277 237 218 147 161 162 175 185 194
296 304 311 316 319 320 325 314 297 270 257 273 288 156 252 185 157 130 270 75 64 26 54 3 349 31 88 158 340 270 87 154 240 147 189 111 271 262 215 150 185 185 184 196 203
285 295 301 307 316 318 322 308 277 248 247 253 266 184 274 165 188 151 344 60 312 268 328 301 315 146 31 77 14 328 278 344 311 197 119 172 275 299 179 175 188 198 205 204 208
277 288 296 301 312 318 323 294 263 241 256 263 266 31 254 186 148 153 338 61 323 287 330 337 54 52 23 63 156 312 350 326 329 259 243 240 257 267 224 190 207 203 207 206 198
268 283 291 295 300 319 337 343 17 347 211 192 187 216 137 126 147 204 176 264 267 334 261 239 61 102 140 102 125 260 291 309 274 225 257 238 268 263 252 214 216 223 216 210 201
261 280 287 284 288 293 306 246 197 239 303 236 196 157 130 162 148 168 168 122 183 237 238 22 132 234 291 204 16 328 292 305 298 195 330 289 289 280 235 224 205 206 223 215 194
253 275 287 278 287 276 235 217 315 318 190 239 190 165 182 167 218 199 151 211 223 303 269 141 201 245 17 16 41 57 92 358 266 320 278 302 328 357 360 71 143 188 217 221 195
247 271 280 277 280 267 242 232 258 296 41 234 189 210 137 164 174 55 83 139 275 189 37 126 230 133 322 115 60 303 101 6 341 34 300 72 282 318 229 326 283 241 215 216 210
246 266 266 225 290 221 88 195 185 78 333 157 160 147 164 148 146 262 98 85 173 166 85 232 181 86 289 191 170 236 193 275 278 348 21 330 70 268 118 328 263 240 247 227 220
251 259 253 238 246 197 123 172 131 54 251 176 135 171 130 205 167 143 126 289 194 54 118 150 165 81 199 281 201 338 353 57 14 61 33 275 109 290 218 206 230 260 215 232 239
248 245 230 195 200 207 181 114 66 174 178 191 181 160 176 177 172 152 165 181 160 116 221 132 151 127 73 346 59 48 57 3 21 15 213 297 46 240 266 241 171 208 246 232 214
241 242 234 211 188 141 176 64 178 218 187 177 134 130 180 155 215 189 148 209 247 210 136 159 265 350 335 114 192 276 135 146 156 316 278 326 255 284 194 179 118 215 170 214 209
230 247 239 204 167 155 89 153 204 215 159 137 110 144 233 198 154 140 197 212 215 181 173 151 159 256 50 359 63 295 68 164 105 6 50 259 284 339 165 160 149 136 217 235 252
216 215 231 190 163 167 101 233 224 142 120 115 157 173 183 188 144 165 186 219 207 174 134 176 106 210 269 360 302 212 224 95 16 127 292 297 295 230 263 201 225 215 236 249 244
212 248 190 177 163 78 201 217 251 197 138 149 188 174 196 176 162 198 210 289 163 100 130 161 103 210 88 203 178 144 238 104 120 135 154 273 270 218 190 173 179 242 291 252 254
169 226 164 156 131 187 213 180 234 172 59 129 121 213 176 174 170 214 203 209 134 136 153 186 129 143 222 314 350 236 202 146 117 204 149 142 273 247 177 194 187 293 287 287 271
191 164 176 181 192 208 219 240 254 173 178 171 197 224 159 159 158 195 113 316 153 115 158 185 189 92 349 348 344 230 209 162 120 84 199 139 259 233 232 209 246 279 285 275 279
143 138 274 357 256 191 187 210 217 219 174 171 194 197 133 173 174 172 126 336 53 73 135 122 165 162 184 189 136 195 197 183 135 133 198 226 258 263 239 271 310 311 296 292 284
181 217 173 194 220 218 183 195 201 204 198 178 211 189 165 178 150 160 120 110 16 237 91 123 196 206 224 229 165 188 183 192 201 181 183 249 227 241 238 246 252 263 263 276 293
172 194 159 174 185 211 198 210 198 179 160 206 190 195 186 174 183 184 139 173 183 177 170 187 235 120 303 240 208 234 217 210 219 225 255 260 281 267 269 243 256 245 261 273 279
202 270 125 189 176 194 211 203 204 185 227 178 194 170 199 218 193 215 177 163 159 149 173 152 139 93 266 50 43 312 235 208 196 200 215 221 241 256 277 270 237 259 243 256 266